Flag for Lebanon Weather past 2 weeks in Sidon, Lebanon

Now
81 °F

Scattered clouds.


Feels Like: 83 °F
Forecast: 73 / 84 °F
Wind: 6 mph from Southwest

Location: Beirut Airport

Current Time: Sep 19, 2014 at 7:41:29 PM

Latest Report: Sep 19, 2014 at 7:00 PM


Visibility: 5 mi

Pressure: 29.95 "Hg

Humidity: 62%

Dew point: 66 °F

Location of SidonLocation

Historic Weather in Sidon — Graph

°F

Sidon temperature yesterday

Maximum temperature yesterday: 86 °F (at 12:00 PM)
Minimum temperature yesterday: 79 °F (at 6:00 AM)
Average temperature yesterday: 82 °F

Past Weeks' High & Low Weather Summary

 TemperatureHumidityPressure
High88 °F (Sep 6, 2:00 PM)79% (Sep 4, 10:00 PM)30.01 "Hg (Sep 4, 10:00 PM)
Low77 °F (Sep 8, 5:00 AM)42% (Sep 9, 8:00 AM)29.74 "Hg (Sep 5, 6:00 PM)
Average82 °F60%29.89 "Hg
* Reported Sep 4 6:00 PM — Sep 19 6:00 PM, Sidon, Weather by CustomWeather, © 2014

Note: Actual official high and low records may vary slightly from our data, if they occured in-between our weather recording intervals... More about our weather records

Advertising

Sidon weather history for previous 24 hours

 ConditionsComfort  
Time TempWeatherWind HumidityBarometerVisibility
6:00 PM
Sep 19
82 °FScattered clouds.8 mph58%29.95 "Hg5 mi
5:00 PM82 °FScattered clouds.8 mph58%29.95 "HgN/A
4:00 PM84 °FScattered clouds.8 mph55%29.95 "Hg5 mi
3:00 PM86 °FScattered clouds.12 mph55%29.98 "HgN/A
2:00 PM84 °FScattered clouds.12 mph55%29.98 "HgN/A
1:00 PM84 °FScattered clouds.13 mph55%29.98 "HgN/A
12:00 PM86 °FPassing clouds.10 mph52%30.01 "HgN/A
11:00 AM84 °FPassing clouds.12 mph55%30.01 "HgN/A
10:00 AM82 °FPassing clouds.10 mph55%30.01 "HgN/A
9:00 AM82 °FPassing clouds.9 mph55%29.98 "HgN/A
8:00 AM81 °FPassing clouds.7 mph51%29.98 "HgN/A
7:00 AM77 °FPassing clouds.5 mph57%29.95 "HgN/A
6:00 AM77 °FPassing clouds.5 mph57%29.98 "HgN/A
5:00 AM77 °FPassing clouds.6 mph61%29.98 "HgN/A
4:00 AM79 °FPassing clouds.7 mph61%29.98 "HgN/A
3:00 AM79 °FPassing clouds.7 mph61%29.98 "HgN/A
2:00 AM79 °FPassing clouds.6 mph61%29.98 "HgN/A
1:00 AM79 °FPassing clouds.6 mph65%29.98 "HgN/A
12:00 AM79 °FPassing clouds.5 mph61%29.98 "HgN/A
11:00 PM
Sep 18
79 °FPassing clouds.6 mph61%29.98 "HgN/A
10:00 PM81 °FPassing clouds.6 mph62%N/AN/A
9:00 PM81 °FPassing clouds.6 mph58%29.95 "HgN/A
8:00 PM81 °FPassing clouds.6 mph54%29.95 "HgN/A
7:00 PM81 °FScattered clouds.7 mph58%29.95 "HgN/A
Weather by CustomWeather, © 2014

See weather overviewHow to use our weather pages